Location: Cathedral Gorge
(37.8167°N, 114.4167°W)
Time: 10:42:05
(UTC-07:00)

OTV 5 (USA 277) - Visible Passes

Search period start: 21 June 2018 00:00
Search period end: 01 July 2018 00:00
Orbit: 313 x 320 km, 54.5° (Epoch: 19 June)

Date Brightness Start Highest point End Pass type
(mag) Time Alt. Az. Time Alt. Az. Time Alt. Az.
26 Jun ? 23:27:21 10° N 23:27:38 11° N 23:27:38 11° N visible
27 Jun ? 23:41:02 10° NNW 23:41:05 10° NNW 23:41:05 10° NNW visible
29 Jun ? 22:35:53 10° NNW 22:37:18 18° NNE 22:37:18 18° NNE visible
30 Jun ? 22:49:51 10° NW 22:50:55 20° NNW 22:50:55 20° NNW visible
